Location: Rumah Geringgi
(3.1667°N, 113.1667°E)
Time: 20:08:21
(UTC+00:00)

Cosmos 1455 - Pass Details

Date: 03 August 2024
Orbit: 430 x 442 km, 82.5° (Epoch: 19 September)

Event Time Altitude Azimuth Distance (km) Brightness Sun altitude
Rises 09:05:16 0° 344° (NNW) 2,387 6.0 22.0°
Reaches altitude 10° 09:07:23 10° 336° (NNW) 1,521 5.3 21.5°
Drops below altitude 10° 09:13:35 10° 197° (SSW) 1,525 4.7 20.0°
Enters shadow 09:32:54 -41° 174° (S) 8,974 8.2 15.4°
Exits shadow 09:59:42 -81° 59° (ENE) 13,055 9.1 9.0°
